Location: Hermaringen
(48.5952°N, 10.2585°E)
Time: 07:15:36
(UTC+00:00)

Cosmos 1464 Rocket - Pass Details

Date: 18 November 2025
Orbit: 950 x 1001 km, 82.9° (Epoch: 06 December)

Event Time Altitude Azimuth Distance (km) Brightness Sun altitude
Rises 17:41:06 0° 190° (S) 3,689 7.2 -20.4°
Reaches altitude 10° 17:43:37 10° 191° (SSW) 2,738 6.5 -20.8°
Maximum altitude 17:49:55 81° 279° (W) 996 4.0 -21.9°
Drops below altitude 10° 17:56:10 10° 8° (N) 2,721 6.2 -22.9°
Sets 17:58:41 0° 9° (N) 3,665 6.9 -23.3°
